Regional Weather Roundup
Issued by NWS

Home | Current Version | Previous Version | Graphics & Text | Print | Product List | Glossary On
Versions: 1 2 3 4 5 6 7 8 9 10 11 12 13 14 15 16 17 18 19 20 21 22 23 24 25 26 27 28 29 30 31 32 33 34 35 36 37 38 39 40 41 42 43 44 45 46 47 48 49 50
000
ASUS43 KOAX 260210
RWRNE

WEATHER ROUNDUP FOR NEBRASKA
NATIONAL WEATHER SERVICE OMAHA NE
800 PM CST TUE NOV 25 2014

NOTES: SATELLITE DATA IS BEING USED TO AUGMENT CLOUD COVER ABOVE
       12000 FEET.
       "FAIR" INDICATES FEW OR NO CLOUDS BELOW 12,000 FEET WITH NO
       SIGNIFICANT WEATHER AND/OR OBSTRUCTIONS TO VISIBILITY.

  * THESE STATIONS DO NOT REPORT WEATHER SUCH AS RAIN...SNOW OR FOG.

NEZ001>004-019>022-054>056-260300-
NEBRASKA PANHANDLE

CITY           SKY/WX    TMP DP  RH WIND       PRES   REMARKS
SCOTTSBLUFF    CLOUDY    34  32  92 W8        29.96R WCI  27
ALLIANCE       CLOUDY    35  30  82 NW14      29.91R WCI  26
CHADRON        CLOUDY    47  29  49 W22G29    29.93R
KIMBALL        LGT SNOW  32  31  96 N14       29.94R WCI  22
SIDNEY         LGT SNOW  33  31  92 NW15      29.95R FOG     WCI  23
$$

NEZ057>060-069>072-079>082-260300-
SOUTHWEST NEBRASKA

CITY           SKY/WX    TMP DP  RH WIND       PRES   REMARKS
NORTH PLATTE   CLOUDY    41  29  62 NW8       29.89R
IMPERIAL       CLOUDY    41  32  70 N17       29.91R
LEXINGTON      CLOUDY    43  29  57 NW24      29.89R
MCCOOK         CLOUDY    47  25  42 NW20      29.89R
OGALLALA       CLOUDY    40  35  83 NW13      29.91S WCI  33
$$

NEZ005>010-023>029-035>040-094-260300-
NORTH CENTRAL NEBRASKA

CITY           SKY/WX    TMP DP  RH WIND       PRES   REMARKS
VALENTINE      MOCLDY    37  31  78 NW17G25   29.85R WCI  27
AINSWORTH      CLOUDY    37  32  84 W14       29.83R WCI  28
BROKEN BOW     CLOUDY    41  29  62 NW17G28   29.85R
O`NEILL        CLOUDY    41  28  59 NW10      29.79S
ORD            CLOUDY    41  29  62 W18G24    29.82R
THEDFORD       CLOUDY    38  31  74 NW9       29.86S WCI  32
$$

NEZ041-046>049-061>064-073>077-083>087-260300-
SOUTH CENTRAL NEBRASKA

CITY           SKY/WX    TMP DP  RH WIND       PRES   REMARKS
GRAND ISLAND   CLOUDY    41  23  48 SW8       29.84R
AURORA         CLOUDY    40  23  49 SW5       29.84R
HASTINGS       CLOUDY    42  20  41 SW7       29.85R
HEBRON         CLOUDY    45  19  36 S9G17     29.88S
HOLDREGE       CLOUDY    42  25  50 W7        29.87R
KEARNEY *      CLOUDY    39  18  41 SW7       29.87R WCI  34
YORK           CLOUDY    41  25  52 S6        29.85S
$$

NEZ011>018-030>034-042>045-260300-
NORTHEAST NEBRASKA

CITY           SKY/WX    TMP DP  RH WIND       PRES   REMARKS
NORFOLK        CLOUDY    39  32  76 E8        29.81F WCI  33
ALBION         CLOUDY    38  25  60 CALM      29.81S
BLAIR          CLOUDY    40  26  57 S12       29.90S WCI  33
COLUMBUS *     CLOUDY    43  25  49 SE7       29.85S
FREMONT        LGT RAIN  43  28  56 S10G18    29.89F
TEKAMAH        CLOUDY    37  25  61 S5        29.91S WCI  33
WAYNE          LGT RAIN  38  34  85 S10       29.86S WCI  31
$$

NEZ050>053-065>068-078-088>093-260300-
SOUTHEAST NEBRASKA

CITY           SKY/WX    TMP DP  RH WIND       PRES   REMARKS
LINCOLN        CLOUDY    42  25  50 S9        29.90F
OMAHA EPPLEY   CLOUDY    39  25  57 S10       29.93F WCI  32
BEATRICE       CLOUDY    43  26  51 S12       29.90F
FALLS CITY     CLOUDY    37  23  56 S10       29.98F WCI  30
NEBRASKA CITY  CLOUDY    38  20  48 S16       29.94F WCI  29
PLATTSMOUTH    CLOUDY    37  23  57 SE10      29.93F WCI  29
$$

NEZ044-045-051>053-067-260300-
OMAHA AREA

CITY           SKY/WX    TMP DP  RH WIND       PRES   REMARKS
OMAHA EPPLEY   CLOUDY    39  25  57 S10       29.93F WCI  32
BLAIR          CLOUDY    40  26  57 S12       29.90S WCI  33
FREMONT        LGT RAIN  43  28  56 S10G18    29.89F
MILLARD        CLOUDY    40  27  58 S6        29.91F
OFFUTT AFB     CLOUDY    38  24  56 SE14      29.92F WCI  30
PLATTSMOUTH    CLOUDY    37  23  57 SE10      29.93F WCI  29
WAHOO          CLOUDY    41  26  54 S9        29.88F
$$


USA.gov is the U.S. government's official web portal to all federal, state and local government web resources and services.